BD-20

Last updated on Thu May 09 2019 03:02:56 GMT+0000 (Coordinated Universal Time)

1 40938U 15053A 19128.48570912 -.00000145 00000-0 00000+0 0 9995 2 40938 53.2197 288.8445 0048798 180.0778 28.5427 1.00273964 13328
UTC large
Height (km)
Speed (km/s)
/
Latitude / Longitude
Inclination (degrees)
Orbital Period (minutes)
Azimuth
Elevation
Range (km)
Doppler Factor

Next 0 passes for location: London (51.5072 / 0.1276)

Sorry there are no passes over London.